This is the latest recevied weather packets stored in our database for station/object KI8L. If no packets are shown the sender has not sent any weather packets the latest 10 day(s).
| Time | Temp. | Humidity | Pressure | Rain* | Wind** | Luminosity | Snow |
|---|---|---|---|---|---|---|---|
| 1777749085 | 6.11° C | 74% | 1019.4 hPa | 0 mm | - | 245 W/m² | - |
| 1777747872 | 5.56° C | 76% | 1019.7 hPa | 0 mm | - | 186 W/m² | - |
| 1777746960 | 5° C | 75% | 1019.5 hPa | 0 mm | - | 119 W/m² | - |
| 1777746656 | 5.56° C | 76% | 1019.7 hPa | 0 mm | - | 123 W/m² | - |
| 1777746351 | 5.56° C | 76% | 1019.5 hPa | 0 mm | - | 160 W/m² | - |
| 1777746047 | 5.56° C | 80% | 1019.7 hPa | 0 mm | - | 144 W/m² | - |
| 1777745746 | 5° C | 78% | 1019.7 hPa | 0 mm | - | 117 W/m² | - |
| 1777745444 | 5° C | 79% | 1019.7 hPa | 0 mm | - | 97 W/m² | - |
| 1777745141 | 5° C | 77% | 1019.8 hPa | 0 mm | - | 87 W/m² | - |
| 1777744838 | 5° C | 80% | 1019.6 hPa | 0 mm | - | 93 W/m² | - |
| 1777744537 | 5° C | 81% | 1019.6 hPa | 0 mm | - | 102 W/m² | - |
| 1777744234 | 5° C | 78% | 1019.7 hPa | 0 mm | - | 82 W/m² | - |
| 1777743325 | 5° C | 78% | 1019.7 hPa | 0 mm | - | 69 W/m² | - |
| 1777743023 | 5.56° C | 81% | 1019.8 hPa | 0 mm | - | 81 W/m² | - |
| 1777742720 | 5.56° C | 81% | 1019.7 hPa | 0 mm | - | 102 W/m² | - |
| 1777742416 | 5.56° C | 79% | 1019.7 hPa | 0 mm | - | 135 W/m² | - |
| 1777741506 | 5.56° C | 79% | 1019.6 hPa | 0 mm | - | 223 W/m² | - |
| 1777740596 | 5.56° C | 82% | 1019.8 hPa | 0 mm | - | 216 W/m² | - |
| 1777739685 | 6.11° C | 81% | 1019.7 hPa | 0 mm | - | 552 W/m² | - |
| 1777739383 | 6.11° C | 81% | 1019.5 hPa | 0 mm | - | 607 W/m² | - |
| 1777739079 | 5° C | 80% | 1019.9 hPa | 0 mm | - | 631 W/m² | - |
| 1777738777 | 5.56° C | 85% | 1019.9 hPa | 0 mm | - | 245 W/m² | - |
| 1777738472 | 5.56° C | 80% | 1019.8 hPa | 0 mm | - | 262 W/m² | - |
| 1777738171 | 5.56° C | 81% | 1020 hPa | 0 mm | - | 552 W/m² | - |
| 1777737868 | 5.56° C | 85% | 1019.7 hPa | 0 mm | - | 269 W/m² | - |
* Rain latest hour (hover to see other rain measurements)
** Current wind speed in m/s (hover to see current wind gust speed)